Location: Newark
(46.7636°N, 1.8358°W)
Time: 16:19:42
(UTC+00:00)

Vanguard 2 Rocket - Pass Details

Date: 21 October 2019
Orbit: 554 x 3326 km, 32.9° (Epoch: 13 November)

Event Time Altitude Azimuth Distance (km) Brightness Sun altitude
Rises 07:00:16 0° 200° (SSW) 5,954 11.1 3.6°
Reaches altitude 10° 07:04:50 10° 188° (S) 5,330 11.0 4.4°
Maximum altitude 07:17:29 26° 140° (SE) 4,800 11.7 6.4°
Drops below altitude 10° 07:32:09 10° 93° (E) 6,270 12.7 8.7°
Sets 07:38:05 0° 83° (E) 7,176 12.5 9.6°
